Wind_Speed
32 34 36 37 39 40 41 42 44 45 46 46 47 48 49 50 51 51 52 53 53 53 53 53 54 54 54 55 56 56 56 56 57 57 57 57 57 58
33 35 37 38 40 41 42 43 45 46 47 47 47 48 49 49 50 50 50 50 50 51 51 50 50 50 50 51 52 52 51 50 50 50 51 52 52 53
34 36 37 38 39 40 41 43 44 44 45 45 46 47 47 48 48 49 49 49 48 47 47 46 46 46 46 45 45 45 44 44 44 45 45 46 47 49
35 37 37 38 39 40 41 41 42 42 43 43 44 45 45 46 46 46 46 45 44 44 43 42 42 41 41 40 39 39 39 38 38 39 40 42 42 43
36 37 37 38 39 39 39 39 40 40 40 41 42 43 43 43 43 43 42 40 40 39 38 37 37 37 36 35 35 34 34 34 34 35 36 37 38 38
35 36 37 37 37 37 37 37 37 37 38 38 39 39 39 39 39 37 36 35 34 34 33 33 33 32 31 31 31 31 31 31 31 31 31 32 33 34
34 34 35 35 35 35 35 35 35 35 35 35 35 35 35 34 33 32 31 30 30 30 29 29 29 29 28 28 28 28 28 27 27 27 28 29 29 29
32 32 33 33 32 32 33 33 32 32 31 31 31 30 30 29 28 28 27 26 26 26 26 26 25 25 25 25 25 25 25 25 25 25 26 26 26 26
30 30 30 30 30 31 31 30 29 28 27 27 26 26 25 25 25 24 23 23 23 23 23 23 22 22 22 22 22 23 23 23 23 24 24 24 24 24
28 28 28 28 29 28 27 27 26 25 24 24 24 23 22 22 21 21 20 20 20 20 20 20 20 19 19 20 20 21 21 21 22 22 22 23 22 22
26 25 26 26 25 25 24 23 23 22 22 22 21 21 20 20 19 19 18 18 18 18 18 18 18 18 18 18 19 20 20 20 21 21 21 21 21 21
23 23 23 23 22 21 21 20 20 20 20 19 19 19 18 17 17 16 16 17 16 16 17 17 17 17 17 17 18 19 19 20 21 21 21 21 21 21
21 20 20 20 20 19 19 19 18 18 18 17 17 17 16 15 15 15 15 15 15 15 15 16 15 16 16 17 18 19 20 20 20 20 20 20 20 21
18 18 18 17 18 17 17 17 17 16 16 16 15 15 14 13 13 13 13 13 13 14 14 14 14 15 15 16 18 19 19 19 19 19 20 20 20 21
16 15 15 15 15 15 15 15 15 15 14 13 13 13 12 12 11 11 12 12 12 12 13 13 13 14 15 16 17 18 18 18 19 19 19 20 20 20
13 13 13 13 13 13 14 14 14 13 13 12 12 11 11 11 11 10 10 10 11 11 12 12 12 13 14 15 16 17 17 18 18 19 19 20 20 21
12 12 12 12 12 13 13 13 13 12 11 11 11 10 10 10 9 9 9 9 9 10 10 10 11 12 13 14 15 16 17 17 18 18 19 20 21 21
11 11 11 11 12 12 12 12 11 11 11 10 9 9 9 9 8 8 8 8 8 8 9 10 10 11 12 13 14 15 16 17 18 19 19 20 21 21
10 10 10 11 11 11 11 11 10 10 9 9 8 8 8 8 7 7 7 7 7 8 8 9 10 10 11 12 13 15 16 17 17 18 19 20 21 21
9 9 10 10 11 11 10 10 9 9 8 8 7 7 7 6 6 6 6 6 7 7 7 8 9 10 11 12 13 14 15 16 17 18 19 20 21 21
8 8 9 9 10 10 9 9 8 8 7 6 6 6 5 5 4 5 5 6 6 7 7 8 9 10 11 12 13 14 15 16 17 18 19 19 20 21
7 7 8 9 9 8 8 8 7 6 6 5 5 4 4 4 3 4 5 5 6 6 7 8 9 10 11 12 13 13 14 15 16 17 18 19 20 20
7 7 8 8 8 8 7 7 6 5 5 4 3 3 3 3 4 4 5 6 6 7 8 8 9 10 10 11 12 13 14 15 16 16 17 18 19 20
Wind_Direction
271 274 276 278 280 281 282 283 284 285 285 286 287 287 287 287 288 288 289 289 289 289 289 289 288 287 286 286 285 284 283 282 281 280 279 278 277 275
272 275 278 280 282 283 284 285 285 286 286 287 287 288 288 289 290 290 291 291 291 291 291 290 290 290 289 289 288 286 284 283 282 280 279 279 278 277
276 278 280 281 283 284 285 285 286 286 286 287 288 289 289 290 291 292 293 294 294 293 292 292 292 292 292 292 290 289 287 286 285 283 283 282 282 281
278 280 282 283 285 285 286 286 287 287 287 289 290 290 291 293 294 295 296 296 296 295 295 295 295 295 296 295 294 293 292 291 291 289 288 287 286 286
280 282 283 285 286 286 286 287 288 288 289 291 292 293 294 295 296 297 297 296 296 296 297 298 298 299 299 299 298 297 296 295 294 293 291 290 290 291
282 284 284 285 286 287 288 289 290 291 293 294 294 296 297 297 298 299 298 298 298 299 300 301 302 303 304 304 303 303 301 300 300 299 298 296 295 294
284 284 285 285 287 288 289 291 293 294 295 296 297 298 299 300 301 302 302 303 303 305 306 306 306 306 306 307 307 308 307 307 307 306 305 304 302 302
284 285 286 287 289 291 291 293 295 296 298 300 301 302 303 303 304 305 306 306 307 309 310 311 312 312 311 311 312 313 313 313 312 312 312 311 309 308
286 287 288 289 291 292 294 296 297 299 300 303 304 305 306 307 308 308 309 310 313 314 315 316 317 316 316 316 317 319 320 320 320 320 320 319 318 317
287 288 290 292 294 295 296 297 298 299 301 304 305 306 308 310 312 312 313 315 318 320 321 323 323 323 323 324 325 327 328 329 329 329 329 328 328 328
288 290 292 294 295 296 297 298 299 300 302 304 306 307 309 312 313 314 316 319 322 325 326 328 329 328 329 330 332 334 334 336 337 338 338 338 338 338
290 292 294 296 297 297 297 298 300 302 303 305 306 308 309 311 314 316 317 320 324 328 330 332 334 336 337 337 338 340 342 343 344 345 346 347 347 348
291 293 295 297 297 297 298 299 301 304 306 306 307 308 309 311 314 316 319 320 324 327 331 335 339 340 342 343 344 345 346 349 350 352 355 356 357 357
293 295 297 298 298 299 301 303 305 307 308 308 308 310 312 313 315 318 322 323 327 331 336 340 343 345 347 349 350 351 354 357 360 2 4 5 6 7
295 297 299 300 301 303 305 306 307 308 309 309 310 312 315 316 318 322 326 329 332 336 341 346 349 351 353 354 356 359 3 8 10 12 14 15 16 18
297 300 301 303 304 305 307 308 309 310 312 313 314 316 319 321 323 325 329 334 337 341 346 351 356 358 359 1 4 8 12 15 19 22 24 24 25 25
299 303 305 304 305 307 308 309 310 312 315 316 318 321 324 326 328 330 334 339 344 347 351 356 2 6 9 12 15 17 21 24 27 29 29 29 30 30
301 305 306 307 308 309 310 311 312 313 315 317 320 325 329 330 332 337 342 347 351 356 360 4 9 14 17 20 25 28 30 32 34 35 35 35 35 35
305 308 310 312 314 314 314 315 315 316 317 319 323 327 331 334 338 344 350 356 360 4 10 15 21 23 25 30 35 37 37 37 38 38 37 37 36 36
310 313 315 316 317 317 318 318 318 319 319 321 324 329 334 339 345 353 0 5 11 18 24 29 31 33 35 38 40 41 41 41 39 38 38 38 36 35
319 321 322 324 324 324 323 323 322 323 323 324 328 334 343 351 360 8 15 21 26 34 38 39 41 44 46 47 45 44 44 42 40 40 38 37 36 35
331 333 333 333 333 332 332 331 330 330 331 333 339 349 1 13 25 30 34 39 44 49 50 51 53 52 51 50 48 46 43 40 39 38 36 35 33 32
345 345 344 344 343 343 342 342 342 342 344 351 3 18 33 50 56 56 57 59 61 63 63 62 61 57 54 52 48 43 40 37 36 35 33 32 31 29
Height
5801 5800 5798 5797 5794 5792 5790 5787 5784 5781 5777 5774 5770 5767 5763 5759 5755 5751 5747 5742 5738 5733 5729 5724 5720 5715 5711 5706 5702 5698 5694 5690 5687 5683 5679 5676 5673 5670
5793 5791 5789 5787 5785 5782 5780 5777 5774 5770 5766 5763 5759 5755 5751 5747 5743 5738 5734 5730 5725 5720 5716 5711 5706 5702 5697 5692 5688 5684 5679 5675 5671 5668 5664 5661 5657 5654
5784 5782 5780 5778 5775 5773 5770 5766 5763 5759 5756 5752 5748 5744 5740 5736 5731 5727 5722 5717 5713 5708 5703 5699 5694 5689 5684 5679 5675 5670 5666 5662 5658 5654 5650 5647 5643 5640
5775 5773 5771 5768 5766 5763 5759 5756 5752 5749 5745 5741 5737 5733 5729 5725 5720 5716 5711 5706 5701 5697 5692 5688 5683 5678 5673 5668 5663 5659 5654 5650 5646 5642 5639 5636 5632 5627
5766 5764 5761 5758 5756 5753 5749 5746 5742 5739 5735 5731 5727 5723 5719 5714 5710 5706 5701 5696 5692 5687 5683 5678 5674 5669 5664 5659 5654 5650 5645 5641 5637 5633 5628 5625 5621 5617
5757 5754 5752 5749 5746 5743 5740 5736 5733 5729 5726 5722 5718 5713 5709 5705 5701 5697 5692 5688 5683 5679 5674 5670 5665 5660 5656 5651 5647 5642 5638 5633 5629 5624 5620 5616 5612 5607
5748 5745 5742 5740 5737 5734 5731 5728 5724 5721 5717 5713 5709 5705 5701 5697 5693 5688 5684 5680 5676 5672 5667 5663 5658 5654 5649 5645 5640 5636 5631 5627 5622 5618 5613 5609 5604 5599
5739 5736 5734 5731 5728 5725 5722 5719 5716 5713 5709 5705 5702 5698 5694 5690 5686 5682 5678 5675 5671 5666 5661 5657 5653 5648 5644 5639 5635 5631 5626 5621 5617 5612 5608 5603 5598 5593
5731 5728 5725 5723 5720 5717 5714 5711 5709 5705 5702 5699 5695 5691 5688 5684 5681 5677 5673 5669 5665 5661 5657 5652 5648 5644 5639 5635 5631 5627 5622 5617 5612 5608 5603 5598 5592 5587
5723 5720 5718 5715 5713 5710 5707 5705 5702 5699 5696 5692 5689 5686 5683 5679 5676 5672 5669 5665 5662 5658 5653 5649 5645 5641 5636 5632 5628 5623 5619 5614 5609 5604 5599 5593 5588 5583
5716 5713 5711 5709 5706 5704 5701 5698 5696 5693 5690 5687 5684 5681 5678 5675 5672 5668 5665 5662 5659 5655 5651 5647 5643 5639 5634 5630 5625 5621 5616 5611 5607 5601 5596 5590 5585 5579
5710 5707 5705 5703 5700 5698 5695 5693 5690 5688 5685 5682 5679 5677 5674 5671 5668 5665 5662 5659 5656 5653 5649 5645 5641 5637 5633 5628 5624 5619 5615 5610 5605 5599 5594 5588 5583 5577
5704 5702 5700 5697 5695 5693 5690 5688 5685 5683 5680 5678 5675 5673 5670 5668 5665 5662 5659 5657 5654 5650 5647 5643 5639 5635 5631 5627 5623 5618 5613 5608 5603 5598 5592 5587 5582 5576
5699 5697 5695 5692 5690 5688 5686 5683 5681 5679 5676 5674 5672 5669 5667 5664 5662 5660 5657 5654 5651 5648 5645 5641 5638 5634 5631 5627 5622 5618 5613 5608 5602 5597 5592 5587 5582 5577
5694 5692 5690 5688 5686 5684 5681 5679 5677 5675 5673 5670 5668 5666 5664 5662 5659 5657 5655 5652 5649 5646 5643 5640 5637 5634 5630 5627 5622 5618 5613 5608 5603 5598 5593 5588 5583 5578
5690 5688 5686 5684 5682 5680 5678 5676 5674 5672 5669 5667 5665 5663 5661 5659 5657 5655 5653 5650 5648 5645 5643 5640 5637 5634 5631 5627 5623 5618 5614 5609 5605 5600 5595 5591 5586 5581
5686 5685 5683 5681 5679 5677 5675 5673 5671 5669 5667 5665 5663 5661 5659 5657 5655 5653 5651 5649 5647 5644 5642 5640 5637 5634 5631 5628 5624 5619 5615 5611 5607 5602 5598 5594 5589 5585
5683 5682 5680 5678 5676 5674 5672 5670 5668 5666 5664 5663 5661 5659 5657 5655 5653 5652 5650 5648 5646 5644 5642 5639 5637 5635 5632 5629 5625 5621 5617 5614 5610 5606 5602 5597 5593 5589
5681 5679 5677 5675 5673 5671 5669 5667 5665 5664 5662 5660 5659 5657 5656 5654 5652 5651 5649 5647 5645 5644 5642 5640 5638 5635 5633 5630 5627 5624 5620 5616 5613 5609 5605 5601 5597 5592
5678 5677 5675 5673 5671 5669 5667 5665 5663 5661 5660 5658 5657 5656 5654 5653 5651 5650 5649 5647 5645 5644 5642 5640 5638 5636 5634 5632 5629 5626 5623 5619 5616 5612 5609 5605 5601 5597
5677 5675 5673 5671 5669 5667 5665 5663 5661 5660 5658 5657 5656 5654 5653 5652 5651 5650 5648 5647 5646 5644 5643 5642 5640 5638 5636 5634 5631 5629 5626 5623 5619 5616 5612 5608 5604 5600
5675 5673 5671 5669 5667 5665 5663 5661 5660 5658 5657 5656 5655 5654 5653 5652 5651 5650 5649 5648 5647 5646 5644 5643 5642 5640 5638 5636 5634 5631 5628 5626 5622 5619 5615 5611 5608 5603
5674 5672 5670 5668 5666 5664 5662 5660 5659 5657 5656 5655 5654 5653 5652 5652 5651 5650 5650 5649 5648 5647 5646 5645 5644 5642 5640 5638 5636 5634 5631 5628 5625 5622 5618 5614 5611 5607